Weather History for KCVG - December, 2011

Change the Weather History Date:

Thursday, December 29, 2011

  Actual Average Record
Temperature  
Mean Temperature 42 °F 31 °F  
Max Temperature 52 °F 39 °F 69 °F (1989)
Min Temperature 31 °F 24 °F -5 °F (1880)
Degree Days  
Heating Degree Days 23 34  
Month to date heating degree days 744 891  
Since 1 July heating degree days 1608 1851  
Cooling Degree Days 0 0  
Month to date cooling degree days 0 0  
Year to date cooling degree days 1349 1121  
Moisture  
Dew Point 31 °F    
Average Humidity 70    
Maximum Humidity 89    
Minimum Humidity 50    
Precipitation  
Precipitation T in 0.11 in 1.09 in (1910)
Month to date precipitation 6.36 3.16  
Year to date precipitation 73.12 42.31  
Snow  
Snow 0.00 in 0.20 in 4.20 in (1902)
Month to date snowfall T 4.4  
Since 1 July snowfall 0.4 5.2  
Snow Depth 0.00 in    
Sea Level Pressure  
Sea Level Pressure 29.84 in    
Wind  
Wind Speed 11 mph (SSW)    
Max Wind Speed 21 mph    
Max Gust Speed 32 mph    
Visibility 10 miles    
Events      
T = Trace of Precipitation, MM = Missing Value Source: NWS Daily Summary

Daily Weather History Graph

Daily Weather History Graph

Search for Another Location

Airport or City:

Trip Planner

Search our weather history database for the weather conditions in past years. The results will help you decide how hot, cold, wet, or windy it might be!

Date:

Astronomy

Dec. 29, 2011 Rise Set
Actual Time 7:57 AM EST 5:24 PM EST
Civil Twilight 7:27 AM EST 5:54 PM EST
Nautical Twilight 6:53 AM EST 6:27 PM EST
Astronomical Twilight 6:21 AM EST 7:00 PM EST
Moon 10:52 AM EST (12/29) 10:57 PM EST (12/29)
Length of Visible Light 10h 27m
Length of Day
9h 27m
Waxing Crescent, 26% of the Moon is Illuminated
Dec 29
Waxing Crescent
Jan 1
First Quarter
Jan 9
Full
Jan 16
Last Quarter
Jan 23
New

Hourly Weather History & Observations

Time (EST) Temp. Windchill Dew Point Humidity Pressure Visibility Wind Dir Wind Speed Gust Speed Precip Events Conditions
12:52 AM 32.0 °F 28.7 °F 27.0 °F 82% 29.99 in 10.0 mi South 3.5 mph - N/A   Overcast
1:52 AM 32.0 °F 27.5 °F 27.0 °F 82% 29.98 in 10.0 mi South 4.6 mph - N/A   Overcast
2:52 AM 33.1 °F 27.7 °F 28.0 °F 82% 29.97 in 10.0 mi SSW 5.8 mph - N/A   Overcast
3:52 AM 34.0 °F 27.2 °F 28.0 °F 79% 29.95 in 10.0 mi South 8.1 mph - N/A   Overcast
4:52 AM 32.0 °F 25.6 °F 28.0 °F 85% 29.93 in 10.0 mi South 6.9 mph - N/A   Clear
5:52 AM 33.1 °F 26.1 °F 28.9 °F 85% 29.91 in 10.0 mi South 8.1 mph - N/A   Overcast
6:52 AM 34.0 °F 26.0 °F 28.9 °F 82% 29.91 in 10.0 mi South 10.4 mph - N/A   Overcast
7:52 AM 34.0 °F 26.6 °F 30.0 °F 85% 29.91 in 10.0 mi South 9.2 mph - N/A   Overcast
8:52 AM 35.1 °F 27.4 °F 30.0 °F 82% 29.90 in 10.0 mi South 10.4 mph - N/A   Overcast
9:52 AM 37.4 °F 30.3 °F 30.2 °F 75% 29.88 in 10.0 mi South 10.4 mph - N/A   Overcast
10:52 AM 39.0 °F 30.3 °F 30.9 °F 73% 29.88 in 10.0 mi SSW 16.1 mph 20.7 mph N/A   Mostly Cloudy
11:52 AM 42.1 °F 35.7 °F 32.0 °F 67% 29.82 in 10.0 mi SSW 11.5 mph 21.9 mph N/A   Mostly Cloudy
1:52 PM 48.0 °F - 33.1 °F 56% 29.73 in 10.0 mi SSW 10.4 mph - N/A   Mostly Cloudy
2:52 PM 51.1 °F - 33.1 °F 50% 29.72 in 10.0 mi SSW 15.0 mph 23.0 mph N/A   Scattered Clouds
3:52 PM 52.0 °F - 34.0 °F 50% 29.71 in 10.0 mi SSW 15.0 mph 32.2 mph N/A   Scattered Clouds
4:52 PM 50.0 °F - 33.8 °F 54% 29.71 in 10.0 mi SSW 16.1 mph 23.0 mph N/A   Scattered Clouds
5:52 PM 50.0 °F - 33.1 °F 52% 29.73 in 10.0 mi SSW 16.1 mph 24.2 mph 0.00 in   Scattered Clouds
6:52 PM 48.9 °F - 32.0 °F 52% 29.76 in 10.0 mi SSW 15.0 mph 23.0 mph N/A   Partly Cloudy
7:52 PM 48.0 °F - 32.0 °F 54% 29.79 in 10.0 mi SSW 16.1 mph 26.5 mph N/A   Clear
8:52 PM 46.4 °F 40.7 °F 33.8 °F 62% 29.79 in 10.0 mi SSW 12.7 mph - N/A   Clear
9:52 PM 46.0 °F 40.2 °F 32.0 °F 58% 29.81 in 10.0 mi SSW 12.7 mph 20.7 mph N/A   Partly Cloudy
10:52 PM 44.6 °F 39.2 °F 32.0 °F 61% 29.82 in 10.0 mi SSW 10.4 mph - N/A   Mostly Cloudy
11:52 PM 44.6 °F 40.2 °F 33.8 °F 66% 29.83 in 10.0 mi SSW 8.1 mph - N/A   Overcast